STARLINK-32666 (62214 NORAD) Tracking and Keplerian Element Data

This shows tracking and keplerian element data for the satellite.

Feedback or suggestion? Click here.




ElementValue
Catalog62214
NameSTARLINK-32666
Epoch Orbit1063
Epoch Day35.22270382
Epoch Year2025
RAAN1.6751
Inclination43.0026
Eccentricity0.0001132
Argument of Perigee265.7107
Mean Anonmoly94.3617
Mean Motion15.32103758
Decay Rate-2.88E-05
L11 62214U 24229Y 25035.22270382 -.00002880 00000+0 -82338-4 0 9992
L22 62214 43.0026 1.6751 0001132 265.7107 94.3617 15.32103758 10632



Live tracking and technical data element details for STARLINK-32666 (NORAD 62214). STARLINK-32666 can be tracked NOW for your location showing map with azimuth and elevation plus other details from your city location.







IsCatalogInMostPopularTable: catalog: 62214, numindb: 13
Update: records affected: 1



GetName: 62214 STARLINK-32666

Hit Count: updated at: Sun, 18 May 2025 23:04:50 GMT